軌道要素
The following orbital elements are taken from MPC 59599:
Epoch 2010 May 4.0 TT = JDT 2455320.5
T 2010 May 4.6352 TT MPC
q 1.179649 (2000.0) P Q
n 0.1674444 Peri. 200.5547 +0.2453561 -0.9582326
a 3.260035 Node 235.5163 +0.9124776 +0.2794605
e 0.638148 Incl. 10.2684 +0.3273911 -0.0607627
P 5.89
From 458 observations 1991-2004, mean residual 1".0. Nongravitational
parameters A1 = +0.61, A2 = -0.5165.
|